Weather in Purwokerto

Indonesia     7°25′33″S   109°15′06″E
temp.,
°C
wind,
m/s
gust,
m/s
humid.,
%
clouds,
%
prec.,
mm/h
press.,
hPa
HPBL,
m
18 august, thu
thu1801:00+23e148380 0.3 1012188
04:00+22nne118714 0.2 101116
07:00+23ne128423 0.3 1013131
10:00+27ese356870 0.3 10131106
13:00+26se467385 0.7 1011907
16:00+25se478159 1.2 1010814
19:00+23ese279076 2.3 1011376
22:00+23ene139280 0.4 1013142
19 august, fri
fri1901:00+22ene1295100 0.6 101164
04:00+22nne119473 0.1 101045
07:00+23ne118910 0.1 1012162
10:00+28ese356963 0.1 10121091
13:00+27se457173 0.3 1009865
16:00+25se588278 1.3 1009797
19:00+24ese3108897 2.3 1011833
22:00+24ese289091 0.6 1012575
20 august, sat
sat2001:00+22se149344 0.8 1011182
04:00+22ene159198 0.1 1011237
07:00+23e158420 0.1 1012389
10:00+28se455847 0.0 10121247
13:00+29sse555367 0.0 10091573
16:00+27se566386 0.0 10091190
19:00+23e137662 0.0 1011163
22:00+23ne117683 0.0 101234
21 august, sun
sun2101:00+21nne1181100 0.0 101017
04:00+21ne1281100 0.0 1010106
07:00+23ne1278100 0.1 1012218
10:00+28se2361100 0.1 10111195
13:00+28sse3363100 0.3 10081088
16:00+25se247688 0.4 1008381
19:00+24e1184100 0.6 101038
22:00+23ne118988 0.1 101217
22 august, mon
mon2201:00+22ne119356 0.1 101016
04:00+21n1195100 0.0 101012
07:00+23nne018891 0.0 1011118
10:00+29sse226221 0.0 10111086
13:00+31sse435253 0.1 10081837
16:00+28se456971 1.9 1009966
19:00+23e129291 5.7 101174
22:00+23ese029290 1.7 101299